Flag for Brazil

Past Weather in Niterói, Rio de Janeiro, Brazil — Yesterday and Last 2 Weeks

Now
64 °F

Overcast.


Feels Like: 64 °F
Forecast: 71 / 65 °F
Wind: No wind

Location: Rio De Janeiro Airport

Current Time: Jul 16, 2020 at 1:47:15 am

Latest Report: Jul 15, 2020 at 11:00 pm


Visibility: 5 mi

Pressure: 30.27 "Hg

Humidity: 88%

Dew Point: 61 °F

Location of NiteróiLocation

Past Weather in Niterói — Graph

°F

Niterói Temperature Yesterday

Maximum temperature yesterday: 68 °F (at 2:00 pm)
Minimum temperature yesterday: 64 °F (at 8:00 am)
Average temperature yesterday: 66 °F

High & Low Weather Summary for the Past Weeks

 TemperatureHumidityPressure
High88 °F (Jul 12, 2:00 pm)100% (Jul 15, 9:00 am)30.27 "Hg (Jul 15, 9:00 am)
Low64 °F (Jul 15, 8:00 am)38% (Jul 8, 12:00 pm)29.68 "Hg (Jul 1, 1:00 pm)
Average73 °F72%30.01 "Hg
* Reported Jun 30 11:00 pm — Jul 15 11:00 pm, Niterói. Weather by CustomWeather, © 2020

Note: Actual official high and low records may vary slightly from our data, if they occured in-between our weather recording intervals... More about our weather records

Niterói Weather History for the Previous 24 Hours

Scroll right to see more
 ConditionsComfort  
Time TempWeatherWind HumidityBarometerVisibility
11:00 pm
Wed, Jul 15
64 °FOvercast.No wind88%30.27 "Hg5 mi
10:00 pm66 °FLight rain. Overcast.6 mph83%30.27 "Hg4 mi
9:00 pm68 °FOvercast.5 mph78%30.27 "HgN/A
8:00 pm68 °FOvercast.2 mph73%30.27 "HgN/A
7:00 pm68 °FMostly cloudy.3 mph73%30.24 "HgN/A
6:00 pm66 °FMostly cloudy.9 mph78%30.21 "HgN/A
5:00 pm68 °FMostly cloudy.10 mph73%30.21 "HgN/A
4:00 pm66 °FMostly cloudy.13 mph78%30.18 "Hg6 mi
3:00 pm68 °FMostly cloudy.10 mph73%30.18 "HgN/A
2:00 pm68 °FMostly cloudy.12 mph78%30.18 "HgN/A
1:00 pm66 °FDrizzle. Fog.13 mph88%30.18 "Hg3 mi
12:00 pm66 °FMostly cloudy.10 mph88%30.21 "HgN/A
11:00 am66 °FDrizzle. Fog.12 mph88%30.21 "Hg2 mi
10:00 am66 °FDrizzle. Fog.9 mph94%30.21 "Hg3 mi
9:00 am64 °FDrizzle. Fog.9 mph100%30.21 "Hg2 mi
8:00 am64 °FDrizzle. Fog.10 mph94%30.18 "Hg2 mi
7:00 am66 °FDrizzle. Cloudy.7 mph94%30.18 "Hg3 mi
6:00 am66 °FDrizzle. Fog.6 mph94%30.15 "Hg3 mi
Weather by CustomWeather, © 2020

See weather overview